Time,TemperatureF,DewpointF,PressureIn,WindDirection,WindDirectionDegrees,WindSpeedMPH,WindSpeedGustMPH,Humidity,HourlyPrecipIn,Conditions,Clouds,dailyrainin,SoftwareType,DateUTC
2013-06-01 00:02:00,66.0,62.0,-100.00,SE,145,4.0,8.0,89,-99.99,,,-99.99,,2013-06-01 05:02:00,
2013-06-01 00:12:00,66.0,62.0,-100.00,SE,145,4.0,8.0,89,-99.99,,,-99.99,,2013-06-01 05:12:00,
2013-06-01 00:22:00,66.0,62.0,-100.00,SE,145,4.0,8.0,89,-99.99,,,-99.99,,2013-06-01 05:22:00,
2013-06-01 00:52:00,66.0,63.0,-100.00,ESE,105,1.0,6.0,89,-99.99,,,-99.99,,2013-06-01 05:52:00,
2013-06-01 01:01:00,66.0,63.0,-100.00,ESE,105,1.0,6.0,89,-99.99,,,-99.99,,2013-06-01 06:01:00,
2013-06-01 01:12:00,66.0,63.0,-100.00,ESE,105,1.0,6.0,89,-99.99,,,-99.99,,2013-06-01 06:12:00,
2013-06-01 01:22:00,66.0,63.0,-100.00,ESE,105,1.0,6.0,89,-99.99,,,-99.99,,2013-06-01 06:22:00,
2013-06-01 01:42:00,65.0,62.0,-100.00,SSE,150,1.0,6.0,89,-99.99,,,-99.99,,2013-06-01 06:42:00,
2013-06-01 01:52:00,65.0,62.0,-100.00,SSE,150,1.0,6.0,89,-99.99,,,-99.99,,2013-06-01 06:52:00,
2013-06-01 02:01:00,65.0,62.0,-100.00,SSE,150,1.0,6.0,89,-99.99,,,-99.99,,2013-06-01 07:01:00,
2013-06-01 02:11:00,65.0,62.0,-100.00,SSE,150,1.0,6.0,89,-99.99,,,-99.99,,2013-06-01 07:11:00,
2013-06-01 02:21:00,65.0,62.0,-100.00,SSE,150,1.0,6.0,89,-99.99,,,-99.99,,2013-06-01 07:21:00,
2013-06-01 02:52:00,63.0,60.0,-100.00,ESE,110,1.0,2.0,89,-99.99,,,-99.99,,2013-06-01 07:52:00,
2013-06-01 03:02:00,63.0,60.0,-100.00,ESE,110,1.0,2.0,89,-99.99,,,-99.99,,2013-06-01 08:02:00,
2013-06-01 03:11:00,63.0,60.0,-100.00,ESE,110,1.0,2.0,89,-99.99,,,-99.99,,2013-06-01 08:11:00,
2013-06-01 03:21:00,63.0,60.0,-100.00,ESE,110,1.0,2.0,89,-99.99,,,-99.99,,2013-06-01 08:21:00,
2013-06-01 03:52:00,64.0,61.0,-100.00,SW,220,0.0,3.0,89,-99.99,,,-99.99,,2013-06-01 08:52:00,
2013-06-01 04:01:00,64.0,61.0,-100.00,SW,220,0.0,3.0,89,-99.99,,,-99.99,,2013-06-01 09:01:00,
2013-06-01 04:12:00,64.0,61.0,-100.00,SW,220,0.0,3.0,89,-99.99,,,-99.99,,2013-06-01 09:12:00,
2013-06-01 04:21:00,64.0,61.0,-100.00,SW,220,0.0,3.0,89,-99.99,,,-99.99,,2013-06-01 09:21:00,
2013-06-01 04:53:00,64.0,60.0,-100.00,WSW,245,1.0,3.0,89,-99.99,,,-99.99,,2013-06-01 09:53:00,
2013-06-01 05:02:00,64.0,60.0,-100.00,WSW,245,1.0,3.0,89,-99.99,,,-99.99,,2013-06-01 10:02:00,
2013-06-01 05:13:00,64.0,60.0,-100.00,WSW,245,1.0,3.0,89,-99.99,,,-99.99,,2013-06-01 10:13:00,
2013-06-01 05:22:00,64.0,60.0,-100.00,WSW,245,1.0,3.0,89,-99.99,,,-99.99,,2013-06-01 10:22:00,
2013-06-01 05:52:00,62.0,59.0,-100.00,SE,145,1.0,2.0,89,-99.99,,,-99.99,,2013-06-01 10:52:00,
2013-06-01 06:02:00,62.0,59.0,-100.00,SE,145,1.0,2.0,89,-99.99,,,-99.99,,2013-06-01 11:02:00,
2013-06-01 06:11:00,62.0,59.0,-100.00,SE,145,1.0,2.0,89,-99.99,,,-99.99,,2013-06-01 11:11:00,
2013-06-01 06:21:00,62.0,59.0,-100.00,SE,145,1.0,2.0,89,-99.99,,,-99.99,,2013-06-01 11:21:00,
2013-06-01 06:52:00,63.0,60.0,-100.00,ESE,115,1.0,3.0,89,-99.99,,,-99.99,,2013-06-01 11:52:00,
2013-06-01 07:01:00,63.0,60.0,-100.00,ESE,115,1.0,3.0,89,-99.99,,,-99.99,,2013-06-01 12:01:00,
2013-06-01 07:12:00,63.0,60.0,-100.00,ESE,115,1.0,3.0,89,-99.99,,,-99.99,,2013-06-01 12:12:00,
2013-06-01 07:21:00,63.0,60.0,-100.00,ESE,115,1.0,3.0,89,-99.99,,,-99.99,,2013-06-01 12:21:00,
2013-06-01 07:42:00,64.0,61.0,-100.00,SSE,160,3.0,6.0,89,-99.99,,,-99.99,,2013-06-01 12:42:00,
2013-06-01 07:52:00,64.0,61.0,-100.00,SSE,160,3.0,6.0,89,-99.99,,,-99.99,,2013-06-01 12:52:00,
2013-06-01 08:01:00,64.0,61.0,-100.00,SSE,160,3.0,6.0,89,-99.99,,,-99.99,,2013-06-01 13:01:00,
2013-06-01 08:11:00,64.0,61.0,-100.00,SSE,160,3.0,6.0,89,-99.99,,,-99.99,,2013-06-01 13:11:00,
2013-06-01 08:22:00,64.0,61.0,-100.00,SSE,160,3.0,6.0,89,-99.99,,,-99.99,,2013-06-01 13:22:00,
2013-06-01 08:52:00,67.0,60.0,-100.00,SSW,205,4.0,12.0,78,-99.99,,,-99.99,,2013-06-01 13:52:00,
2013-06-01 09:02:00,67.0,60.0,-100.00,SSW,205,4.0,12.0,78,-99.99,,,-99.99,,2013-06-01 14:02:00,
2013-06-01 09:11:00,67.0,60.0,-100.00,SSW,205,4.0,12.0,78,-99.99,,,-99.99,,2013-06-01 14:11:00,
2013-06-01 09:21:00,67.0,60.0,-100.00,SSW,205,4.0,12.0,78,-99.99,,,-99.99,,2013-06-01 14:21:00,
2013-06-01 09:42:00,70.0,59.0,-100.00,South,180,4.0,12.0,68,-99.99,,,-99.99,,2013-06-01 14:42:00,
2013-06-01 09:52:00,70.0,59.0,-100.00,South,180,4.0,12.0,68,-99.99,,,-99.99,,2013-06-01 14:52:00,
2013-06-01 10:02:00,70.0,59.0,-100.00,South,180,4.0,12.0,68,-99.99,,,-99.99,,2013-06-01 15:02:00,
2013-06-01 10:11:00,70.0,59.0,-100.00,South,180,4.0,12.0,68,-99.99,,,-99.99,,2013-06-01 15:11:00,
2013-06-01 10:21:00,70.0,59.0,-100.00,South,180,4.0,12.0,68,-99.99,,,-99.99,,2013-06-01 15:21:00,
2013-06-01 10:23:00,71.0,59.0,-100.00,SE,145,6.0,14.0,65,-99.99,,,-99.99,,2013-06-01 15:23:00,
2013-06-01 10:43:00,71.0,59.0,-100.00,SE,145,6.0,14.0,65,-99.99,,,-99.99,,2013-06-01 15:43:00,
2013-06-01 10:54:00,71.0,59.0,-100.00,SE,145,6.0,14.0,65,-99.99,,,-99.99,,2013-06-01 15:54:00,
2013-06-01 11:03:00,71.0,59.0,-100.00,SE,145,6.0,14.0,65,-99.99,,,-99.99,,2013-06-01 16:03:00,
2013-06-01 11:12:00,71.0,59.0,-100.00,SE,145,6.0,14.0,65,-99.99,,,-99.99,,2013-06-01 16:12:00,
2013-06-01 11:42:00,73.0,58.0,-100.00,North,-999,-999.0,-999.0,59,-99.99,,,-99.99,,2013-06-01 16:42:00,
2013-06-01 11:52:00,73.0,58.0,-100.00,SE,140,4.0,14.0,59,-99.99,,,-99.99,,2013-06-01 16:52:00,
2013-06-01 12:02:00,73.0,58.0,-100.00,SE,140,4.0,14.0,59,-99.99,,,-99.99,,2013-06-01 17:02:00,
2013-06-01 12:12:00,73.0,58.0,-100.00,SE,140,4.0,14.0,59,-99.99,,,-99.99,,2013-06-01 17:12:00,
2013-06-01 12:22:00,73.0,58.0,-100.00,SE,140,4.0,14.0,59,-99.99,,,-99.99,,2013-06-01 17:22:00,
2013-06-01 12:52:00,69.0,60.0,-100.00,SSE,160,7.0,19.0,73,-99.99,,,-99.99,,2013-06-01 17:52:00,
2013-06-01 13:01:00,69.0,60.0,-100.00,SSE,160,7.0,19.0,73,-99.99,,,-99.99,,2013-06-01 18:01:00,
2013-06-01 13:12:00,69.0,60.0,-100.00,SSE,160,7.0,19.0,73,-99.99,,,-99.99,,2013-06-01 18:12:00,
2013-06-01 13:22:00,69.0,60.0,-100.00,SSE,160,7.0,19.0,73,-99.99,,,-99.99,,2013-06-01 18:22:00,
2013-06-01 13:42:00,72.0,60.0,-100.00,SSE,160,6.0,18.0,66,-99.99,,,-99.99,,2013-06-01 18:42:00,
2013-06-01 13:52:00,72.0,60.0,-100.00,SSE,160,6.0,18.0,66,-99.99,,,-99.99,,2013-06-01 18:52:00,
2013-06-01 14:02:00,72.0,60.0,-100.00,SSE,160,6.0,18.0,66,-99.99,,,-99.99,,2013-06-01 19:02:00,
2013-06-01 14:11:00,72.0,60.0,-100.00,SSE,160,6.0,18.0,66,-99.99,,,-99.99,,2013-06-01 19:11:00,
2013-06-01 14:21:00,72.0,60.0,-100.00,SSE,160,6.0,18.0,66,-99.99,,,-99.99,,2013-06-01 19:21:00,
2013-06-01 14:42:00,75.0,55.0,-100.00,SE,145,6.0,15.0,50,-99.99,,,-99.99,,2013-06-01 19:42:00,
2013-06-01 14:52:00,75.0,55.0,-100.00,SE,145,6.0,15.0,50,-99.99,,,-99.99,,2013-06-01 19:52:00,
2013-06-01 15:02:00,75.0,55.0,-100.00,SE,145,6.0,15.0,50,-99.99,,,-99.99,,2013-06-01 20:02:00,
2013-06-01 15:12:00,75.0,55.0,-100.00,SE,145,6.0,15.0,50,-99.99,,,-99.99,,2013-06-01 20:12:00,
2013-06-01 15:21:00,75.0,55.0,-100.00,SE,145,6.0,15.0,50,-99.99,,,-99.99,,2013-06-01 20:21:00,
2013-06-01 17:53:00,72.0,49.0,-100.00,West,270,6.0,18.0,44,-99.99,,,-99.99,,2013-06-01 22:53:00,
2013-06-01 18:02:00,72.0,49.0,-100.00,West,270,6.0,18.0,44,-99.99,,,-99.99,,2013-06-01 23:02:00,
2013-06-01 18:11:00,72.0,49.0,-100.00,West,270,6.0,18.0,44,-99.99,,,-99.99,,2013-06-01 23:11:00,
2013-06-01 18:22:00,72.0,49.0,-100.00,West,270,6.0,18.0,44,-99.99,,,-99.99,,2013-06-01 23:22:00,
2013-06-01 18:52:00,70.0,50.0,-100.00,WNW,285,6.0,13.0,48,-99.99,,,-99.99,,2013-06-01 23:52:00,
2013-06-01 19:02:00,70.0,50.0,-100.00,WNW,285,6.0,13.0,48,-99.99,,,-99.99,,2013-06-02 00:02:00,
2013-06-01 19:11:00,70.0,50.0,-100.00,WNW,285,6.0,13.0,48,-99.99,,,-99.99,,2013-06-02 00:11:00,
2013-06-01 19:21:00,70.0,50.0,-100.00,WNW,285,6.0,13.0,48,-99.99,,,-99.99,,2013-06-02 00:21:00,
2013-06-01 19:42:00,68.0,49.0,-100.00,West,270,3.0,10.0,52,-99.99,,,-99.99,,2013-06-02 00:42:00,
2013-06-01 19:52:00,68.0,49.0,-100.00,West,270,3.0,10.0,52,-99.99,,,-99.99,,2013-06-02 00:52:00,
2013-06-01 20:01:00,68.0,49.0,-100.00,West,270,3.0,10.0,52,-99.99,,,-99.99,,2013-06-02 01:01:00,
2013-06-01 20:11:00,68.0,49.0,-100.00,West,270,3.0,10.0,52,-99.99,,,-99.99,,2013-06-02 01:11:00,
2013-06-01 20:21:00,68.0,49.0,-100.00,West,270,3.0,10.0,52,-99.99,,,-99.99,,2013-06-02 01:21:00,
2013-06-01 20:42:00,66.0,50.0,-100.00,West,275,4.0,8.0,57,-99.99,,,-99.99,,2013-06-02 01:42:00,
2013-06-01 20:52:00,66.0,50.0,-100.00,West,275,4.0,8.0,57,-99.99,,,-99.99,,2013-06-02 01:52:00,
2013-06-01 21:01:00,66.0,50.0,-100.00,West,275,4.0,8.0,57,-99.99,,,-99.99,,2013-06-02 02:01:00,
2013-06-01 21:12:00,66.0,50.0,-100.00,West,275,4.0,8.0,57,-99.99,,,-99.99,,2013-06-02 02:12:00,
2013-06-01 21:21:00,66.0,50.0,-100.00,West,275,4.0,8.0,57,-99.99,,,-99.99,,2013-06-02 02:21:00,
2013-06-01 21:52:00,64.0,51.0,-100.00,WNW,285,2.0,9.0,61,-99.99,,,-99.99,,2013-06-02 02:52:00,
2013-06-01 22:02:00,64.0,51.0,-100.00,WNW,285,2.0,9.0,61,-99.99,,,-99.99,,2013-06-02 03:02:00,
2013-06-01 22:11:00,64.0,51.0,-100.00,WNW,285,2.0,9.0,61,-99.99,,,-99.99,,2013-06-02 03:11:00,
2013-06-01 22:21:00,64.0,51.0,-100.00,WNW,285,2.0,9.0,61,-99.99,,,-99.99,,2013-06-02 03:21:00,
2013-06-01 22:43:00,63.0,52.0,-100.00,West,270,2.0,5.0,67,-99.99,,,-99.99,,2013-06-02 03:43:00,
2013-06-01 22:53:00,63.0,52.0,-100.00,West,270,2.0,5.0,67,-99.99,,,-99.99,,2013-06-02 03:53:00,
2013-06-01 23:02:00,63.0,-99.9,-100.00,West,270,2.0,5.0,67,-99.99,,,-99.99,,2013-06-02 04:02:00,
2013-06-01 23:13:00,63.0,52.0,-100.00,West,270,2.0,5.0,67,-99.99,,,-99.99,,2013-06-02 04:13:00,
2013-06-01 23:23:00,63.0,52.0,-100.00,West,270,2.0,5.0,67,-99.99,,,-99.99,,2013-06-02 04:23:00,
2013-06-01 23:53:00,60.0,53.0,-100.00,West,275,3.0,4.0,77,-99.99,,,-99.99,,2013-06-02 04:53:00,